Location: Le Sartre
(44.8050°N, 2.2123°E)
Time: 10:21:17
(UTC+00:00)

Cosmos 468 Rocket - Pass Details

Date: 15 May 2026
Orbit: 740 x 773 km, 74.0° (Epoch: 6 June)

Event Time Altitude Azimuth Distance (km) Brightness Sun altitude
Exits shadow 22:30:14 55° 207° (SSW) 928 4.1 -23.8°
Maximum altitude 22:31:26 85° 289° (WNW) 779 3.9 -23.8°
Drops below altitude 10° 22:36:43 10° 20° (NNE) 2,315 7.1 -24.1°
Sets 22:39:06 0° 21° (NNE) 3,241 8.0 -24.3°
